SCP
0 0 0 0 1 1 1 1 1 1 1 1 1 1 2 2 3 3 3 3 3 2 2 2 3 4 4 3 3 3 3 3 3 4 4 4 4 4 4 3 1 0 0 0
0 0 0 1 1 1 1 1 1 1 1 1 1 1 2 2 3 4 4 4 3 2 2 3 3 4 4 3 3 3 3 3 3 3 4 4 5 4 4 2 1 0 0 1
0 0 0 1 1 1 1 1 1 1 2 2 2 2 2 2 3 4 5 5 4 3 3 3 3 4 4 4 4 4 4 3 3 2 3 3 4 4 2 1 1 1 1 1
0 0 0 1 1 1 1 2 2 2 2 3 3 3 3 3 3 4 5 6 5 4 3 3 3 3 4 5 5 5 4 4 3 2 2 2 3 2 1 1 1 1 1 1
0 0 0 1 1 1 1 2 2 3 4 4 4 4 3 4 4 5 6 6 6 5 4 4 4 4 4 5 5 6 5 5 4 3 2 2 2 2 1 1 1 1 1 1
0 0 1 1 1 2 2 2 3 4 4 4 4 4 3 4 5 6 6 6 6 5 5 5 5 5 5 5 6 7 7 5 4 3 2 1 1 2 2 2 1 1 1 1
0 1 1 1 1 2 2 2 3 4 4 4 4 4 3 4 5 6 6 6 5 5 6 5 5 5 5 5 6 7 6 5 4 3 2 1 1 2 2 2 1 0 0 1
0 1 1 1 1 1 1 2 3 4 4 4 4 4 4 4 4 5 6 6 5 5 5 5 5 5 5 5 5 6 6 5 4 3 4 2 2 2 2 2 1 0 0 1
1 1 1 1 2 2 1 2 3 4 4 5 5 5 5 5 5 5 6 6 5 5 5 6 5 5 5 5 5 5 5 5 4 4 4 3 2 2 2 1 1 0 0 1
3 3 2 2 2 2 2 3 3 4 5 6 6 6 5 5 5 6 7 7 7 6 6 6 5 5 5 5 5 5 4 4 3 3 3 3 3 2 1 1 1 0 0 0
3 3 2 2 2 3 3 3 4 4 5 5 6 6 5 5 6 8 9 9 8 6 6 5 4 5 5 5 4 4 4 3 3 2 2 2 2 2 1 1 1 0 0 0
3 2 2 1 2 2 3 3 3 3 3 4 4 5 5 6 7 9 10 10 8 7 6 4 4 5 5 5 4 4 3 3 2 2 2 2 1 1 1 1 0 0 0 0
1 1 1 1 1 2 3 4 4 4 3 2 3 4 5 7 8 10 11 10 9 7 6 4 4 4 5 4 4 3 3 3 2 2 2 2 2 1 1 1 1 0 0 0
0 1 1 1 2 2 3 5 8 7 5 4 4 4 6 8 9 9 10 10 10 8 6 4 4 4 4 4 3 3 3 3 3 2 2 2 2 2 2 2 1 1 0 0
1 1 1 2 2 3 3 6 10 11 9 7 6 7 8 8 8 8 9 9 8 7 5 4 4 4 5 4 3 3 3 3 3 3 3 2 2 2 2 3 3 2 2 1
2 2 3 3 3 3 4 5 9 11 11 9 8 8 8 8 8 8 8 8 6 5 5 5 5 5 5 4 4 4 4 4 4 3 3 3 3 3 3 4 4 4 3 2
3 4 4 3 3 3 3 5 7 10 11 10 8 7 8 8 8 8 8 7 5 5 5 6 6 6 5 4 4 5 5 4 4 4 3 3 4 4 4 4 4 4 3 1
3 4 4 4 3 2 3 6 9 11 11 9 7 6 6 7 7 8 7 6 5 5 5 6 6 6 6 5 5 6 6 5 4 4 3 3 3 4 4 4 4 3 1 0
3 3 4 3 3 2 4 7 9 10 9 8 7 6 5 5 6 6 5 5 4 5 5 5 5 5 6 6 6 7 7 6 5 4 3 3 2 2 2 2 2 1 0 0
2 3 3 2 2 2 4 6 7 7 6 6 5 5 4 4 4 4 4 3 3 3 5 6 6 6 6 6 6 7 7 6 5 4 3 3 2 1 1 0 0 0 0 0
2 2 2 2 2 2 3 4 4 4 4 4 4 4 3 3 3 3 3 2 2 3 4 6 7 6 6 6 6 7 7 6 5 3 3 4 3 2 1 0 0 0 0 0
1 1 1 1 1 2 2 2 2 2 2 2 3 3 3 3 2 2 2 2 2 2 3 4 5 4 4 4 4 6 7 6 4 4 4 4 4 3 2 1 0 0 0 0
0 0 0 1 1 1 1 1 1 1 1 2 2 3 4 4 3 2 2 2 1 1 2 2 2 1 2 2 3 4 5 5 4 3 3 3 4 4 2 1 0 0 0 0
0 0 0 0 0 0 0 0 1 1 1 1 2 3 3 3 3 3 2 2 1 1 1 1 0 0 1 1 1 2 3 3 2 2 2 2 3 4 3 2 1 0 0 0
0 0 0 0 0 0 0 0 0 1 1 1 1 1 2 2 2 2 2 1 1 1 1 0 0 0 0 0 0 1 1 1 1 1 2 2 3 3 3 2 1 1 0 0
0 0 0 0 0 0 0 0 0 0 0 0 0 0 0 0 1 1 1 1 0 0 0 0 0 0 0 0 0 0 0 1 1 1 1 2 2 3 3 3 2 1 0 0
0 0 0 0 0 0 0 0 0 0 0 0 0 0 0 0 0 0 0 0 0 0 0 0 0 0 0 0 0 0 0 0 0 1 1 2 2 2 2 2 2 1 1 0
Wind_Speed
3 3 3 3 4 5 5 8 8 8 8 9 7 7 5 3 4 6 6 7 8 8 7 7 7 7 7 7 8 8 8 7 6 5 4 4 4 4 5 5 4 4 5 4
0 1 2 2 2 4 4 4 4 3 7 7 4 2 3 4 6 7 8 8 8 8 8 9 9 9 9 9 8 8 9 8 6 5 5 4 4 5 5 5 4 4 4 4
2 2 2 2 4 4 3 3 5 6 8 4 2 3 5 6 7 9 9 8 9 9 9 9 10 10 10 9 9 9 9 8 7 7 6 5 5 5 5 4 4 4 4 4
2 2 4 8 2 2 4 2 3 3 4 4 5 4 3 3 6 6 6 7 8 8 8 8 8 8 8 8 9 9 8 8 7 7 6 6 5 5 4 4 4 4 3 3
4 3 4 4 1 1 2 2 1 2 3 3 2 2 3 2 3 6 6 6 6 7 8 8 8 9 9 9 8 8 8 8 8 8 7 7 6 5 4 4 4 3 3 3
5 5 6 6 3 2 2 3 3 1 1 1 2 1 5 3 2 3 3 4 5 5 6 8 8 10 10 10 10 10 9 8 8 8 8 8 7 5 4 4 4 4 3 2
4 3 6 5 5 1 4 6 3 2 2 2 3 5 4 3 2 1 2 3 6 7 7 7 8 10 10 10 10 9 8 8 8 8 8 7 6 5 5 5 4 3 3 2
4 3 7 3 1 3 5 3 2 2 2 2 3 2 2 1 0 1 2 4 6 6 6 6 8 9 9 9 9 8 9 9 9 8 7 7 7 6 6 6 5 3 2 1
6 7 5 2 2 3 2 2 2 2 3 2 2 2 1 0 1 1 2 3 5 6 6 6 7 8 9 7 8 10 9 9 8 8 7 7 7 7 6 5 4 4 3 2
2 4 4 3 2 2 1 2 2 2 2 1 1 0 0 1 1 2 2 3 4 7 6 5 5 6 6 8 9 10 10 9 8 8 7 7 6 6 6 5 5 4 4 3
2 4 3 3 2 2 2 2 2 2 2 1 0 1 0 0 1 2 2 2 3 5 6 5 5 5 5 7 10 10 9 8 8 7 7 6 5 4 6 5 6 6 5 4
6 5 3 4 4 2 1 1 1 1 3 3 0 0 1 0 1 2 2 3 3 3 4 4 5 5 5 7 8 9 8 7 6 6 6 6 5 3 2 2 5 6 6 5
5 3 3 4 3 2 1 1 1 0 1 2 2 1 1 1 1 2 2 3 3 3 3 4 5 5 5 6 7 8 7 7 6 6 6 6 6 6 4 1 2 3 5 6
4 2 2 3 3 2 2 2 1 2 2 1 1 1 1 1 1 2 2 2 3 3 3 3 4 4 4 5 7 7 6 7 6 6 6 6 6 5 5 5 4 2 2 5
4 3 4 3 2 2 2 0 1 1 1 2 2 2 2 2 1 1 1 2 3 3 3 3 3 3 4 5 6 7 6 5 5 5 5 5 5 5 4 5 4 3 2 2
2 1 1 1 2 2 1 1 1 1 0 1 1 2 2 1 1 1 2 2 3 3 3 3 3 3 4 5 6 5 5 7 6 5 5 5 5 5 5 5 5 4 4 4
3 2 2 2 3 3 2 2 2 2 1 1 1 1 2 2 2 2 1 1 1 1 2 3 3 3 4 4 5 4 4 5 7 5 5 6 6 6 6 6 6 5 5 5
4 5 4 4 4 3 2 2 2 2 3 2 2 2 2 2 1 0 1 1 1 1 1 2 3 3 4 5 5 4 4 5 5 6 5 5 5 5 6 6 6 6 4 4
3 3 3 3 3 3 3 2 2 2 2 1 2 1 1 1 0 0 0 0 0 1 2 1 3 3 4 5 5 4 5 5 5 5 5 5 5 5 5 6 6 6 5 5
0 0 0 1 1 1 2 2 1 1 1 1 2 1 1 1 1 1 1 1 1 2 2 1 2 2 3 4 5 4 5 5 5 5 5 5 6 6 6 6 6 5 5 6
1 0 1 0 0 0 1 1 1 1 0 1 2 2 1 1 0 1 1 1 2 1 1 2 2 2 3 3 5 4 4 4 5 5 5 5 5 5 5 6 5 5 6 6
0 1 1 1 0 1 1 0 1 1 1 1 1 1 1 1 0 0 1 2 2 1 1 1 1 2 3 3 3 3 4 4 4 4 4 5 5 6 6 6 6 6 6 5
0 0 1 1 0 1 2 2 1 1 1 1 1 1 1 1 1 1 1 1 1 1 1 1 1 1 3 2 2 3 3 4 4 4 4 5 5 6 6 6 6 5 5 5
1 2 1 1 2 2 2 2 1 1 1 1 0 1 1 0 1 1 1 2 1 1 1 1 1 0 1 2 2 2 3 3 3 4 4 4 4 5 5 5 5 4 4 5
1 1 1 1 2 1 1 1 2 2 2 1 1 1 1 0 1 1 1 1 1 1 1 1 1 1 1 0 1 2 2 2 3 3 3 3 4 4 4 4 4 4 4 4
1 1 1 1 0 0 0 1 1 1 1 1 1 1 1 1 1 1 1 1 1 1 1 1 1 1 1 1 1 1 1 1 2 2 2 2 3 3 3 4 5 4 4 3
2 1 1 2 1 1 0 1 1 1 0 0 1 2 1 1 1 2 2 2 2 2 2 2 1 1 1 1 1 1 1 1 0 1 1 1 2 2 2 3 3 3 3 3
Wind_Direction
212 215 184 179 182 179 173 174 178 221 225 252 253 246 238 206 177 164 171 178 182 182 179 173 171 173 172 167 161 156 154 158 164 161 152 136 125 120 114 107 104 100 92 81
15 289 194 178 194 188 197 180 201 214 247 257 271 240 224 191 181 186 190 191 187 184 180 178 176 176 172 168 164 157 158 162 158 150 144 136 131 124 114 105 100 93 90 89
220 306 74 236 217 194 190 190 173 202 240 278 274 226 217 203 192 198 197 193 188 188 187 183 178 174 174 167 157 158 159 159 158 157 152 146 141 131 123 116 107 97 92 91
135 103 208 239 256 189 169 199 212 235 259 253 246 244 228 200 199 210 203 196 194 187 183 179 170 167 161 155 158 159 157 156 157 155 150 143 140 138 131 122 116 110 104 99
125 161 253 289 285 138 163 253 235 230 276 293 340 31 324 263 211 212 205 199 198 186 174 164 161 157 151 158 160 158 161 161 161 159 154 151 148 146 140 131 122 118 119 113
129 151 213 239 272 278 151 260 284 220 239 234 75 71 272 294 249 219 184 171 170 161 150 155 156 147 150 161 164 171 170 167 162 158 158 160 159 151 139 137 135 129 115 107
145 183 249 259 288 36 150 242 284 264 242 196 191 217 260 296 285 205 158 157 154 152 156 159 154 151 157 167 180 174 160 158 156 156 159 161 155 148 141 134 127 122 114 96
144 169 244 282 51 151 218 261 276 267 259 241 232 250 265 275 341 85 100 125 139 144 152 152 155 157 164 177 172 156 155 161 163 161 161 164 157 151 147 143 140 140 134 111
183 207 242 265 226 246 220 244 274 271 278 223 212 229 248 286 82 89 116 133 139 140 139 148 159 162 172 173 157 155 160 166 164 162 162 160 160 158 154 154 156 165 168 172
251 270 276 296 296 297 257 244 272 274 285 253 220 247 195 108 99 103 128 142 141 139 144 156 164 170 172 162 158 159 164 166 165 163 162 163 164 164 165 170 172 177 183 191
256 276 317 324 318 314 351 15 22 8 358 329 106 16 330 175 144 132 111 109 136 147 154 158 159 164 160 160 159 162 166 166 168 169 165 168 165 169 176 185 186 182 190 188
222 227 204 257 280 294 22 350 352 24 356 339 299 262 52 57 133 131 130 130 138 145 148 156 163 165 164 163 163 160 161 165 172 172 168 167 161 147 115 162 177 185 184 181
229 231 214 251 287 292 274 279 291 5 334 309 316 20 76 73 94 121 129 135 146 155 158 157 163 165 167 166 163 163 166 167 168 168 169 170 170 172 171 140 136 182 190 189
228 194 249 250 247 275 283 287 340 23 9 341 329 28 75 85 102 125 143 157 147 136 138 149 164 169 167 165 161 164 163 164 166 171 170 171 175 179 179 179 184 201 209 199
251 218 216 241 274 290 277 214 85 34 24 9 28 51 58 75 94 131 139 135 126 124 136 161 180 185 166 161 158 161 161 162 168 172 172 169 168 172 180 188 192 189 172 181
238 220 201 209 239 250 253 196 168 233 325 353 45 47 43 70 74 71 81 109 128 146 165 181 201 195 167 159 156 161 162 165 166 169 169 167 172 182 189 192 194 196 201 191
169 211 230 240 248 246 242 230 206 209 212 202 170 116 93 88 74 53 33 30 155 165 167 185 197 176 165 168 165 165 164 167 166 170 179 182 186 190 192 194 197 202 208 195
213 217 216 215 226 238 258 255 225 210 204 207 174 127 108 109 115 44 324 340 31 68 211 206 195 182 179 180 177 172 175 178 180 183 184 187 192 192 190 196 200 200 196 187
205 206 213 215 220 215 224 239 239 219 204 170 148 153 150 144 152 135 76 68 305 292 287 253 208 199 194 191 179 178 180 182 183 184 185 184 190 194 195 200 204 203 197 190
104 118 178 256 232 191 203 219 196 169 183 159 152 131 79 65 159 145 135 201 255 259 265 261 225 210 203 191 180 184 185 187 189 190 189 189 197 199 201 205 207 205 202 199
99 38 345 322 351 328 236 208 169 170 225 157 155 159 172 214 179 134 137 287 299 293 274 253 227 209 196 184 179 186 190 190 195 200 196 198 202 204 204 206 206 207 208 207
322 358 327 317 15 319 305 227 157 159 132 120 125 147 157 174 216 309 242 239 263 289 295 268 232 206 192 186 190 198 204 202 202 202 201 202 201 205 210 209 208 210 210 210
290 337 339 332 341 338 4 19 80 116 109 113 131 164 189 198 207 202 281 282 265 294 316 309 275 199 193 197 198 201 205 206 204 203 207 209 207 208 211 212 211 209 207 207
43 36 8 353 45 60 39 11 32 73 98 105 141 176 194 251 302 277 251 270 287 305 330 338 341 286 195 191 194 199 206 210 212 212 212 209 205 204 206 207 209 209 205 202
42 35 33 40 40 20 13 25 33 40 59 53 32 360 328 255 251 295 314 328 349 360 345 341 348 343 342 267 221 213 213 216 216 216 215 208 207 205 203 202 201 200 199 195
29 11 353 1 337 312 337 63 46 25 41 28 4 7 8 347 342 0 359 357 12 20 14 5 13 8 1 348 310 266 240 223 213 209 205 202 202 198 194 194 192 191 186 180
27 22 35 34 16 9 54 85 73 3 2 27 358 356 7 1 17 35 27 20 34 38 30 19 20 24 22 20 22 22 27 37 108 161 179 191 196 195 188 182 178 177 175 170